EZY87JW EGKK-LGPZ

Flight info

Callsign EZY87JW
Flight time N/A
Altitude 37000
Route ODVIK Y311 DVR UL9 KONAN DCT KOK DCT RITAX DCT BANUX DCT BABEG DCT KUMOM DCT DARZA DCT UNIPA DCT VAKSU DCT RODON DCT LIMJA DCT PITAS N732 KRK M127 MALED
Aircraft A320/M-SDE2E3FGHIJ1RWXYZ/LB1

Departure

Time N/A
Airport London Gatwick Airport (EGKK)

Arrival

Time 2026-04-22 19:38
Airport Aktion National Airport (LGPZ)
Time Latitude Longitude Altitude Speed Heading
2026-04-22 18:28 45.43371 15.07084 37201 ft 467 kts 143°
2026-04-22 18:29 45.38086 15.12548 37201 ft 468 kts 143°
2026-04-22 18:29 45.32821 15.17985 37204 ft 468 kts 144°
2026-04-22 18:30 45.24912 15.26135 37198 ft 468 kts 144°
2026-04-22 18:31 45.19627 15.31567 37198 ft 469 kts 144°
2026-04-22 18:31 45.14337 15.36984 37198 ft 469 kts 144°
2026-04-22 18:32 45.09044 15.42395 37176 ft 470 kts 144°
2026-04-22 18:32 45.03724 15.47763 37178 ft 470 kts 148°
2026-04-22 18:33 44.97925 15.51893 37171 ft 464 kts 172°
2026-04-22 18:33 44.91542 15.52832 37175 ft 461 kts 179°
2026-04-22 18:34 44.85165 15.54059 37169 ft 466 kts 165°
2026-04-22 18:34 44.82130 15.55683 37163 ft 469 kts 154°
2026-04-22 18:34 44.79326 15.58034 37160 ft 470 kts 144°
2026-04-22 18:35 44.74059 15.63497 37156 ft 471 kts 145°
2026-04-22 18:35 44.68719 15.68852 37153 ft 472 kts 146°
2026-04-22 18:36 44.63353 15.74195 37155 ft 473 kts 146°
2026-04-22 18:36 44.57992 15.79571 37157 ft 474 kts 146°
2026-04-22 18:37 44.52621 15.84950 37155 ft 475 kts 146°
2026-04-22 18:37 44.48152 15.89415 37163 ft 475 kts 146°
2026-04-22 18:38 44.41850 15.95697 37161 ft 476 kts 146°
2026-04-22 18:38 44.36452 16.01071 37161 ft 476 kts 146°
2026-04-22 18:39 44.28341 16.09114 37165 ft 477 kts 146°
2026-04-22 18:39 44.22926 16.14465 37164 ft 477 kts 146°
2026-04-22 18:40 44.17512 16.19811 37160 ft 477 kts 146°
2026-04-22 18:40 44.12335 16.25618 37161 ft 478 kts 142°
2026-04-22 18:41 44.07147 16.31415 37157 ft 478 kts 143°
2026-04-22 18:41 44.01936 16.37165 37158 ft 478 kts 142°
2026-04-22 18:42 43.96748 16.42953 37151 ft 478 kts 142°
2026-04-22 18:42 43.91610 16.48721 37139 ft 479 kts 142°
2026-04-22 18:43 43.86422 16.54521 37132 ft 479 kts 143°
2026-04-22 18:43 43.81224 16.60299 37130 ft 479 kts 143°
2026-04-22 18:44 43.76030 16.66070 37124 ft 479 kts 143°
2026-04-22 18:44 43.70823 16.71842 37121 ft 480 kts 143°
2026-04-22 18:45 43.65612 16.77604 37123 ft 480 kts 143°
2026-04-22 18:45 43.60401 16.83363 37123 ft 480 kts 143°
2026-04-22 18:46 43.55126 16.89164 37123 ft 480 kts 143°
2026-04-22 18:46 43.49918 16.94868 37119 ft 480 kts 143°
2026-04-22 18:47 43.44687 17.00601 37117 ft 481 kts 143°
2026-04-22 18:47 43.39453 17.06329 37117 ft 481 kts 144°
2026-04-22 18:48 43.34245 17.12004 37113 ft 480 kts 144°
2026-04-22 18:48 43.29002 17.17698 37110 ft 481 kts 144°
2026-04-22 18:49 43.23748 17.23398 37109 ft 481 kts 144°
2026-04-22 18:49 43.18497 17.29099 37104 ft 482 kts 144°
2026-04-22 18:50 43.13248 17.34784 37099 ft 481 kts 144°
2026-04-22 18:50 43.07984 17.40456 37082 ft 481 kts 144°
2026-04-22 18:51 43.02716 17.46111 37080 ft 482 kts 144°
2026-04-22 18:51 42.97443 17.51770 37076 ft 482 kts 144°
2026-04-22 18:52 42.93022 17.56515 37076 ft 483 kts 144°
2026-04-22 18:52 42.87741 17.62167 37074 ft 483 kts 145°
2026-04-22 18:53 42.82481 17.67765 37070 ft 483 kts 145°
2026-04-22 18:53 42.77181 17.73398 37063 ft 484 kts 145°
2026-04-22 18:54 42.71875 17.79039 37053 ft 484 kts 146°
2026-04-22 18:54 42.66524 17.84718 37053 ft 485 kts 146°
2026-04-22 18:55 42.61202 17.90346 37051 ft 485 kts 146°
2026-04-22 18:55 42.55898 17.95935 37046 ft 486 kts 146°
2026-04-22 18:56 42.50550 18.01558 37044 ft 487 kts 146°
2026-04-22 18:56 42.45199 18.07174 37050 ft 486 kts 146°
2026-04-22 18:57 42.39852 18.12781 37042 ft 486 kts 146°
2026-04-22 18:57 42.34496 18.18385 37048 ft 487 kts 146°
2026-04-22 18:58 42.29136 18.23979 37044 ft 487 kts 146°
2026-04-22 18:58 42.23769 18.29557 37037 ft 487 kts 146°
2026-04-22 18:59 42.18397 18.35125 37045 ft 487 kts 146°
2026-04-22 18:59 42.13028 18.40687 37047 ft 487 kts 146°
2026-04-22 19:00 42.07658 18.46242 37050 ft 487 kts 147°
2026-04-22 19:00 42.02283 18.51785 37054 ft 487 kts 147°
2026-04-22 19:01 41.96919 18.57336 37056 ft 487 kts 147°
2026-04-22 19:01 41.91571 18.62915 37054 ft 487 kts 147°
2026-04-22 19:02 41.86219 18.68490 37054 ft 487 kts 147°
2026-04-22 19:02 41.80861 18.74042 37059 ft 487 kts 147°
2026-04-22 19:03 41.75536 18.79531 37065 ft 486 kts 147°
2026-04-22 19:03 41.70177 18.85051 37070 ft 486 kts 147°
2026-04-22 19:04 41.64821 18.90567 37069 ft 486 kts 147°
2026-04-22 19:04 41.59465 18.96069 37070 ft 485 kts 147°
2026-04-22 19:05 41.54111 19.01562 37070 ft 485 kts 147°
2026-04-22 19:05 41.48756 19.07033 37068 ft 485 kts 148°
2026-04-22 19:06 41.42998 19.11393 37058 ft 470 kts 166°
2026-04-22 19:07 41.33812 19.15862 37053 ft 469 kts 167°
2026-04-22 19:07 41.27685 19.18855 37055 ft 469 kts 167°
2026-04-22 19:08 41.21562 19.21847 37050 ft 468 kts 167°
2026-04-22 19:08 41.15439 19.24824 37048 ft 469 kts 167°
2026-04-22 19:09 41.09321 19.27789 37043 ft 468 kts 167°
2026-04-22 19:09 41.03199 19.30747 37047 ft 468 kts 167°
2026-04-22 19:10 40.97084 19.33701 37044 ft 468 kts 167°
2026-04-22 19:10 40.91008 19.36625 37038 ft 468 kts 167°
2026-04-22 19:11 40.84887 19.39574 37028 ft 468 kts 167°
2026-04-22 19:11 40.78767 19.42506 37026 ft 468 kts 168°
2026-04-22 19:12 40.72639 19.45440 37024 ft 469 kts 168°
2026-04-22 19:12 40.66500 19.48376 37025 ft 469 kts 168°
2026-04-22 19:13 40.60362 19.51312 37024 ft 469 kts 168°
2026-04-22 19:13 40.54226 19.54239 37019 ft 469 kts 168°
2026-04-22 19:14 40.48078 19.57151 37018 ft 470 kts 168°
2026-04-22 19:14 40.41924 19.60060 36982 ft 471 kts 168°
2026-04-22 19:14 40.38838 19.61520 36727 ft 471 kts 168°
2026-04-22 19:15 40.36799 19.62486 36549 ft 471 kts 169°
2026-04-22 19:15 40.32673 19.64439 36224 ft 473 kts 169°
2026-04-22 19:15 40.29563 19.65909 35978 ft 477 kts 169°
2026-04-22 19:15 40.26432 19.67384 35727 ft 479 kts 169°
2026-04-22 19:16 40.23298 19.68858 35475 ft 478 kts 169°
2026-04-22 19:16 40.20170 19.70326 35219 ft 477 kts 169°
2026-04-22 19:16 40.17059 19.71789 34709 ft 474 kts 169°
2026-04-22 19:16 40.13957 19.73247 34117 ft 473 kts 170°
2026-04-22 19:17 40.10862 19.74697 33545 ft 472 kts 170°
2026-04-22 19:17 40.07772 19.76140 32970 ft 471 kts 170°
2026-04-22 19:17 40.04686 19.77582 32390 ft 470 kts 170°
2026-04-22 19:17 40.01614 19.79022 31822 ft 468 kts 170°
2026-04-22 19:18 39.98554 19.80460 31267 ft 466 kts 170°
2026-04-22 19:18 39.95547 19.81872 30710 ft 465 kts 170°
2026-04-22 19:18 39.92515 19.83292 30172 ft 462 kts 170°
2026-04-22 19:18 39.89499 19.84700 29673 ft 459 kts 170°
2026-04-22 19:19 39.86516 19.86133 29210 ft 455 kts 169°
2026-04-22 19:19 39.83570 19.87601 28738 ft 451 kts 168°
2026-04-22 19:19 39.80658 19.89082 28292 ft 447 kts 168°
2026-04-22 19:19 39.77779 19.90559 27836 ft 443 kts 168°
2026-04-22 19:20 39.74924 19.92019 27380 ft 438 kts 168°
2026-04-22 19:20 39.72111 19.93449 26937 ft 432 kts 168°
2026-04-22 19:20 39.69319 19.94859 26471 ft 429 kts 168°
2026-04-22 19:20 39.66551 19.96250 26016 ft 425 kts 168°
2026-04-22 19:21 39.63799 19.97626 25550 ft 423 kts 168°
2026-04-22 19:21 39.61062 19.98987 25073 ft 420 kts 168°
2026-04-22 19:21 39.58339 20.00337 24578 ft 418 kts 168°
2026-04-22 19:21 39.55633 20.01679 24099 ft 416 kts 168°
2026-04-22 19:22 39.52940 20.03015 23610 ft 413 kts 167°
2026-04-22 19:22 39.50258 20.04348 23119 ft 411 kts 167°
2026-04-22 19:22 39.47594 20.05676 22637 ft 410 kts 167°
2026-04-22 19:22 39.44966 20.07119 22161 ft 414 kts 159°
2026-04-22 19:23 39.42538 20.09168 21678 ft 420 kts 146°
2026-04-22 19:23 39.40270 20.11538 21199 ft 418 kts 146°
2026-04-22 19:23 39.38011 20.13893 20747 ft 416 kts 146°
2026-04-22 19:23 39.35781 20.16210 20321 ft 406 kts 146°
2026-04-22 19:24 39.33602 20.18465 19780 ft 395 kts 146°
2026-04-22 19:24 39.31494 20.20646 19347 ft 381 kts 147°
2026-04-22 19:24 39.29461 20.22752 18927 ft 369 kts 147°
2026-04-22 19:24 39.27487 20.24794 18507 ft 358 kts 147°
2026-04-22 19:25 39.26209 20.26110 18239 ft 351 kts 147°
2026-04-22 19:25 39.23702 20.28687 17732 ft 338 kts 147°
2026-04-22 19:25 39.21942 20.30658 17376 ft 336 kts 138°
2026-04-22 19:25 39.20408 20.32945 17006 ft 339 kts 133°
2026-04-22 19:26 39.18906 20.35293 16624 ft 339 kts 133°
2026-04-22 19:26 39.17402 20.37643 16250 ft 340 kts 133°
2026-04-22 19:26 39.15897 20.39995 15872 ft 341 kts 133°
2026-04-22 19:26 39.14389 20.42358 15499 ft 341 kts 133°
2026-04-22 19:27 39.12880 20.44723 15118 ft 342 kts 133°
2026-04-22 19:27 39.11366 20.47084 14747 ft 342 kts 133°
2026-04-22 19:27 39.09850 20.49440 14376 ft 342 kts 133°
2026-04-22 19:27 39.08335 20.51794 14002 ft 342 kts 133°
2026-04-22 19:28 39.06821 20.54148 13620 ft 341 kts 133°
2026-04-22 19:28 39.05306 20.56499 13243 ft 341 kts 133°
2026-04-22 19:28 39.03798 20.58843 12846 ft 340 kts 133°
2026-04-22 19:28 39.02289 20.61188 12448 ft 340 kts 133°
2026-04-22 19:29 39.00784 20.63526 12057 ft 339 kts 133°
2026-04-22 19:29 38.99282 20.65852 11655 ft 337 kts 132°
2026-04-22 19:29 38.97790 20.68160 11256 ft 334 kts 132°
2026-04-22 19:29 38.96310 20.70450 10861 ft 332 kts 131°
2026-04-22 19:30 38.95430 20.72052 10593 ft 333 kts 118°
2026-04-22 19:30 38.94820 20.75885 10052 ft 330 kts 83°
2026-04-22 19:30 38.95507 20.78635 9768 ft 320 kts 57°
2026-04-22 19:30 38.96927 20.80767 9294 ft 316 kts 38°
2026-04-22 19:31 38.98616 20.82562 8711 ft 320 kts 37°
2026-04-22 19:31 39.00357 20.84358 8224 ft 311 kts 37°
2026-04-22 19:31 39.01989 20.86030 7778 ft 297 kts 37°
2026-04-22 19:31 39.03566 20.87648 7386 ft 284 kts 37°
2026-04-22 19:32 39.05042 20.89255 6956 ft 273 kts 47°
2026-04-22 19:32 39.05962 20.91323 6510 ft 264 kts 75°
2026-04-22 19:32 39.06062 20.93626 6064 ft 256 kts 101°
2026-04-22 19:32 39.05394 20.95700 5599 ft 249 kts 127°
2026-04-22 19:33 39.04158 20.97196 5153 ft 242 kts 146°
2026-04-22 19:33 39.02755 20.98363 4704 ft 239 kts 151°
2026-04-22 19:33 39.01187 20.98903 4238 ft 235 kts 186°
2026-04-22 19:33 38.99730 20.98170 3832 ft 221 kts 221°
2026-04-22 19:34 38.98899 20.96615 3476 ft 208 kts 249°
2026-04-22 19:34 38.98393 20.94931 3147 ft 196 kts 249°
2026-04-22 19:34 38.97905 20.93346 2820 ft 183 kts 249°
2026-04-22 19:34 38.97456 20.91903 2490 ft 167 kts 248°
2026-04-22 19:35 38.97042 20.90567 2198 ft 155 kts 248°
2026-04-22 19:35 38.96657 20.89315 1964 ft 146 kts 248°
2026-04-22 19:35 38.96410 20.88516 1846 ft 144 kts 248°
2026-04-22 19:35 38.95922 20.86938 1615 ft 141 kts 248°
2026-04-22 19:36 38.95562 20.85777 1424 ft 139 kts 248°
2026-04-22 19:36 38.95205 20.84629 1248 ft 138 kts 248°
2026-04-22 19:36 38.94849 20.83489 1065 ft 137 kts 249°
2026-04-22 19:36 38.94497 20.82353 886 ft 136 kts 248°
2026-04-22 19:37 38.94148 20.81227 689 ft 136 kts 248°
2026-04-22 19:37 38.93768 20.80123 458 ft 135 kts 245°
2026-04-22 19:37 38.93367 20.79032 260 ft 135 kts 246°
2026-04-22 19:37 38.93005 20.77921 64 ft 135 kts 249°
2026-04-22 19:38 38.92782 20.77206 19 ft 121 kts 247°
2026-04-22 19:38 38.92528 20.76403 21 ft 68 kts 248°
2026-04-22 19:38 38.92440 20.76121 19 ft 28 kts 248°
2026-04-22 19:38 38.92375 20.75910 20 ft 23 kts 249°
2026-04-22 19:39 38.92316 20.75712 21 ft 24 kts 249°
2026-04-22 19:39 38.92249 20.75507 23 ft 26 kts 246°
2026-04-22 19:39 38.92125 20.75412 23 ft 16 kts 155°
2026-04-22 19:39 38.92110 20.75535 21 ft 15 kts 69°
2026-04-22 19:40 38.92135 20.75620 21 ft 15 kts 69°
2026-04-22 19:40 38.92174 20.75740 22 ft 18 kts 67°
2026-04-22 19:40 38.92231 20.75913 19 ft 23 kts 67°
2026-04-22 19:40 38.92295 20.76110 21 ft 25 kts 67°
2026-04-22 19:41 38.92364 20.76325 18 ft 27 kts 68°
2026-04-22 19:41 38.92417 20.76496 18 ft 9 kts 69°
2026-04-22 19:41 38.92421 20.76510 18 ft 0 kts 69°
2026-04-22 19:41 38.92995 20.77153 20 ft 0 kts 338°